Tracking 28794 objects as of 19-Apr-2024
HD Live streaming from Space Station
objects crossing your sky now

BEIDOU IGSO 3

Track BEIDOU IGSO 3 now!
BEIDOU IGSO 3 is classified as:


NORAD ID: 37384
Int'l Code: 2011-013A
Perigee: 35,684.9 km
Apogee: 35,901.3 km
Inclination: 61.3 °
Period: 1,436.1 minutes
Semi major axis: 42164 km
RCS: 25.1189 m2 (large)
Launch date: April 9, 2011
Source: People's Republic of China (PRC)
Launch site: Xichang Space Center, China (XSC)

BEIDOU IGSO 3 is part of China's Beidou Navigation System. The high-inclination orbit is going to give advantage to users in polar regions.
Your satellite tracking list
Your tracking list is empty




NASA's NSSDC Master Catalog

Two Line Element Set (TLE):
1 37384U 11013A   24109.79522634 -.00000191  00000-0  00000-0 0  9997
2 37384  61.2722  47.6832 0025661 180.6804  14.1770  1.00274018 47749
Source of the keplerian elements: AFSPC